Find Starlink 11589

NORAD ID: 63311 Int'l Des: 2025-057 Owner: SPXS Country: US Constellation: starlink operational
別名: STARLINK-11589 [DTC] celestrak
LEOCIRCULAR

現在のビュー

3D地球を読み込み中...

About Starlink 11589

Starlink 11589 (NORAD 63311) is a starlink constellation satellite (v2 mini d2c) launched Mar 18, 2025 by SPXS of US. It operates in LEO, CIRCULAR orbit with a mass of 960.00 kg.

次回通過

Passes for default location (London). Set your location on the main map for personalized predictions.

高度履歴

Loading altitude history...

軌道要素

1 63311U 25057E 26264.08533762 .00162896 00000-0 12466-2 0 9990
2 63311 43.0014 167.1646 0002100 265.7199 94.3429 15.70871476 87902
Epoch: Sep 21, 2026 • Age: 22 hours

現在のステータス

高度 355.0 km
遠地点 / 近地点 N/A
速度 7.70 km/s
衛星直下点 5.04°N, 26.77°W
打ち上げ日 Mar 18, 2025
運用期間 1.5 years
タイプ internet

技術仕様

分類 Payload
質量 960.00 kg
乾燥質量 910.00 kg
長さ 0.30 m
スパン 29.00 m
形状 ? Box + pan
製造者 SPXS
バスタイプ Starlink V2MD
フェーズステータス In Orbit
所有者/国 SPXS/US

Most Searched